Station SNDA2 - 9459450 - Sand Point, AK Image indicating link to RSS feed of recent meteorological observations for station SNDA2


Conditions at SNDA2 as of
(11:18 am AKDT)
1918 GMT on 05/22/2024:
     

Click on the graph icon in the table below to see a time series plot of the last five days of that observation.

5-day plot - Wind Direction Wind Direction (WDIR):WSW ( 250 deg true )
5-day plot - Wind Speed Wind Speed (WSPD): 11.1 kts
5-day plot - Wind Gust Wind Gust (GST): 15.9 kts
5-day plot - Atmospheric Pressure Atmospheric Pressure (PRES):29.96 in
5-day plot - Air Temperature Air Temperature (ATMP): 42.3 °F
5-day plot - Water Temperature Water Temperature (WTMP): 41.0 °F
5-day plot - Wind Chill Wind Chill (CHILL): 35.4 °F
5-day plot - Wind Speed at 10 Meters Wind Speed at 10 meters (WSPD10M): 11.7 kts
5-day plot - Wind Speed at 20 Meters Wind Speed at 20 meters (WSPD20M): 11.7 kts
5-day plot -  Wind Speed, Wind Gust and Atmospheric Pressure Combined plot of Wind Speed, Gust, and Air Pressure
NOS Water Level Observation Network Water Level
Previous observations
TIME
(AKDT)
5-day plot - Wind Direction
WDIR
 
5-day plot - Wind Speed
WSPD
kts
5-day plot - Wind Gust
GST
kts
5-day plot - Wave Height
WVHT
ft
5-day plot - Dominant Wave Period
DPD
sec
5-day plot - Average Wave Period
APD
sec
5-day plot - Mean Wave Direction
MWD
 
5-day plot - Atmospheric Pressure
PRES
in
5-day plot - Pressure Tendency
PTDY
in
5-day plot - Air Temperature
ATMP
°F
5-day plot - Water Temperature
WTMP
°F
5-day plot - Dew Point
DEWP
°F
5-day plot - Salinity
SAL
psu
5-day plot - Visibility
VIS
nmi
5-day plot - Tide (above MLLW)
TIDE
ft
2024-05-22 11:12 amWSW 8.9 11.1----29.96- 42.3 41.0----
2024-05-22 11:06 amWSW 8.0 12.0----29.96- 42.4 41.0----
2024-05-22 11:00 amWSW 9.9 12.0----29.95+0.05 42.4 41.0----
2024-05-22 10:54 amWSW 8.0 13.0----29.95- 42.3 41.0----
2024-05-22 10:48 am SW 8.0 12.0----29.95- 42.1 41.0----
2024-05-22 10:42 amWSW 8.9 12.0----29.95- 41.7 41.0----
2024-05-22 10:36 amWSW 8.0 9.9----29.95- 41.9 41.0----
2024-05-22 10:30 amWSW 6.0 11.1----29.95- 41.7 41.0----
2024-05-22 10:24 am W 8.0 9.9----29.95- 41.5 41.0----
2024-05-22 10:18 am W 9.9 11.1------- 41.0----
2024-05-22 10:12 am W 8.0 12.0------- 41.2----
2024-05-22 10:06 am W 8.9 13.0------- 41.2----
2024-05-22 10:00 amWSW 11.1 13.0------- 41.0----
2024-05-22 09:54 amWSW 9.9 12.0------- 41.0----
2024-05-22 09:48 amWSW 8.9 11.1------- 41.0----
2024-05-22 09:42 amWSW 8.0 12.0------- 41.0----
2024-05-22 09:36 amWSW 11.1 13.0------- 41.0----
2024-05-22 09:30 amWSW 8.9 12.0----29.93-------
2024-05-22 09:24 amSSW 7.0 9.9----29.92-------
2024-05-22 09:18 am SW 4.1 7.0------- 41.0----
2024-05-22 09:12 am SW 5.1 7.0------- 41.0----
2024-05-22 09:06 am SW 4.1 6.0------- 41.0----
2024-05-22 09:00 am SW 5.1 7.0----29.92+0.06- 41.0----
2024-05-22 08:54 amWSW 5.1 6.0----29.91-- 41.0----
2024-05-22 08:48 am SW 4.1 6.0------- 41.0----
2024-05-22 08:42 amSSW 5.1 7.0------- 41.0----
2024-05-22 08:36 amSSW 4.1 8.9------- 41.0----
2024-05-22 08:30 amWSW 5.1 7.0------------
2024-05-22 08:24 am W 7.0 8.9------------
2024-05-22 08:18 amWSW 7.0 8.9------ 40.8 41.0----
2024-05-22 08:12 amWSW 8.0 9.9------ 41.0 41.0----
2024-05-22 08:06 amWSW 8.9 12.0------ 41.2 41.0----
2024-05-22 08:00 am W 8.9 12.0----29.90+0.04 41.0 41.0----
2024-05-22 07:54 amWSW 7.0 9.9----29.90- 41.2 41.0----
2024-05-22 07:48 amWSW 8.0 11.1----29.90- 40.8 41.0----
2024-05-22 07:42 amWSW 9.9 11.1----29.90- 40.8 41.0----
2024-05-22 07:36 amWSW 8.9 11.1----29.89- 41.0 41.0----
2024-05-22 07:30 amWSW 7.0 8.9----29.89- 40.6 41.0----
2024-05-22 07:24 amWSW 7.0 11.1----29.89- 40.8 41.2----
2024-05-22 07:18 am SW 7.0 9.9----29.88- 40.6 41.2----
2024-05-22 07:12 amWSW 6.0 9.9----29.88- 40.5 41.0----
2024-05-22 07:06 am SW 6.0 8.9----29.88- 40.6 41.0----
2024-05-22 07:00 amSSW 5.1 6.0----29.88+0.03 40.3 41.0----
2024-05-22 06:54 am SW 4.1 6.0----29.88- 40.3 41.0----
2024-05-22 06:48 amSSW 4.1 7.0----29.88-- 41.0----
2024-05-22 06:42 am SW 5.1 7.0----29.87-- 41.0----
2024-05-22 06:36 amSSW 5.1 7.0----29.87-- 41.0----
2024-05-22 06:30 amSSW 4.1 7.0------------
2024-05-22 06:24 amSSW 4.1 6.0------------
2024-05-22 06:18 am SW 6.0 7.0------------
2024-05-22 06:12 am SW 5.1 7.0------------
2024-05-22 06:06 amSSW 6.0 7.0------------
2024-05-22 06:00 am SW 5.1 8.0----29.86+0.02 41.0 41.0----
2024-05-22 05:54 am SW 8.0 8.9----29.86- 40.8 41.0----
2024-05-22 05:48 amWSW 7.0 8.9----29.86-- 41.0----
2024-05-22 05:42 amWSW 7.0 8.0----29.86-- 41.0----
2024-05-22 05:36 am SW 5.1 7.0----29.86-- 41.0----
2024-05-22 05:30 amWSW 5.1 7.0------------
2024-05-22 05:24 amWSW 6.0 8.0------------
2024-05-22 05:18 amWSW 8.0 9.9----29.86-- 41.0----
2024-05-22 05:12 am SW 8.0 9.9----29.85-- 41.0----
2024-05-22 05:06 amWSW 8.0 8.9----29.85-- 41.0----
2024-05-22 05:00 amWSW 8.9 11.1----29.85+0.03 41.0 41.0----
2024-05-22 04:54 amWSW 8.9 12.0----29.85- 41.0 41.0----
2024-05-22 04:48 amWSW 9.9 12.0----29.85- 40.8 41.0----
2024-05-22 04:42 amWSW 8.9 11.1----29.85- 40.8 41.0----
2024-05-22 04:36 amWSW 8.0 14.0----29.85- 40.8 41.0----
2024-05-22 04:30 amWSW 12.0 15.9----29.85- 41.0 41.0----
2024-05-22 04:24 amWSW 9.9 14.0----29.85- 41.0 41.0----
2024-05-22 04:18 amWSW 9.9 12.0----29.85- 41.0 41.0----
2024-05-22 04:12 am SW 8.0 11.1----29.84- 40.8 41.0----
2024-05-22 04:06 am SW 9.9 13.0----29.85- 41.0 41.0----
2024-05-22 04:00 amWSW 8.9 12.0----29.85+0.03 41.0 41.0----
2024-05-22 03:54 amWSW 8.9 11.1----29.85- 41.0 41.0----
2024-05-22 03:48 amWSW 9.9 11.1----29.85- 41.2 41.0----
2024-05-22 03:42 am SW 6.0 9.9----29.84- 41.2 41.0----
2024-05-22 03:36 amWSW 8.9 9.9----29.84- 41.2 41.0----
2024-05-22 03:30 amWSW 8.0 12.0----29.85- 41.4 41.0----
2024-05-22 03:24 amWSW 9.9 12.0----29.84- 41.4 41.0----
2024-05-22 03:18 am SW 8.0 9.9----29.84- 41.4 41.2----
2024-05-22 03:12 amWSW 8.0 11.1----29.84- 41.2 41.2----
2024-05-22 03:06 am SW 6.0 11.1----29.84- 41.2 41.2----
2024-05-22 03:00 amWSW 9.9 13.0----29.84+0.03 41.2 41.2----
2024-05-22 02:54 amWSW 8.9 14.0----29.84- 41.2 41.2----
2024-05-22 02:48 amWSW 9.9 14.0----29.84- 41.2 41.2----
2024-05-22 02:42 amWSW 12.0 14.0----29.84- 41.2 41.2----
2024-05-22 02:36 amWSW 9.9 12.0----29.83- 41.2 41.2----
2024-05-22 02:30 amWSW 8.9 11.1----29.83- 41.2 41.2----
2024-05-22 02:24 amWSW 8.9 11.1----29.83- 41.2 41.2----
2024-05-22 02:18 amWSW 9.9 14.0----29.83- 41.4 41.2----
2024-05-22 02:12 amWSW 13.0 15.0----29.83- 41.5 41.2----
2024-05-22 02:06 amWSW 11.1 15.0----29.83- 41.4 41.2----
2024-05-22 02:00 am SW 11.1 13.0----29.83+0.03 41.5 41.0----
2024-05-22 01:54 amWSW 8.9 9.9----29.83- 41.5 41.2----
2024-05-22 01:48 amWSW 8.0 11.1----29.83- 41.4 41.2----
2024-05-22 01:42 amWSW 8.9 12.0----29.82- 41.4 41.2----
2024-05-22 01:36 amWSW 8.9 11.1----29.82- 41.5 41.2----
2024-05-22 01:30 am SW 8.9 11.1----29.82- 41.5 41.2----
2024-05-22 01:24 am SW 7.0 9.9----29.82- 41.5 41.2----
2024-05-22 01:18 amSSW 7.0 9.9----29.82- 41.5 41.2----
2024-05-22 01:12 amSSW 8.0 9.9----29.82- 41.5 41.2----
2024-05-22 01:06 am SW 7.0 11.1----29.81- 41.5 41.2----
2024-05-22 01:00 am SW 8.9 13.0----29.81+0.04 41.5 41.2----
2024-05-22 12:54 am SW 8.0 9.9----29.81- 41.5 41.2----
2024-05-22 12:48 amWSW 8.0 8.9----29.81- 41.4 41.2----
2024-05-22 12:42 am SW 7.0 9.9----29.81- 41.4 41.2----
2024-05-22 12:36 amWSW 8.9 12.0----29.81- 41.5 41.2----
2024-05-22 12:30 amWSW 7.0 14.0----29.81- 41.5 41.2----
2024-05-22 12:24 amWSW 8.9 12.0----29.81- 41.5 41.2----
2024-05-22 12:18 am SW 7.0 14.0----29.81- 41.7 41.2----
2024-05-22 12:12 am SW 11.1 13.0----29.81- 41.7 41.2----
2024-05-22 12:06 am SW 9.9 13.0----29.81- 41.5 41.2----
2024-05-22 12:00 amWSW 9.9 13.0----29.81+0.05 41.5 41.2----
2024-05-21 11:54 pm SW 9.9 14.0----29.81- 41.7 41.2----
2024-05-21 11:48 pm SW 9.9 13.0----29.81- 41.9 41.2----
2024-05-21 11:42 pm SW 8.9 13.0----29.81- 41.7 41.2----
2024-05-21 11:36 pmSSW 7.0 13.0----29.80- 41.7 41.2----
2024-05-21 11:30 pmSSW 8.9 12.0----29.80- 41.7 41.2----
2024-05-21 11:24 pm SW 8.0 12.0----29.80- 41.5 41.2----
2024-05-21 11:18 pmSSW 8.0 11.1----29.80- 41.5 41.2----
2024-05-21 11:12 pmSSW 8.0 12.0----29.80- 41.5 41.2----
2024-05-21 11:06 pmWSW 12.0 17.1----29.80- 41.7 41.2----
2024-05-21 11:00 pmSSW 9.9 14.0----29.79+0.03 41.7 41.2----
2024-05-21 10:54 pm SW 11.1 15.9----29.79- 41.9 41.2----
2024-05-21 10:48 pmSSW 11.1 15.0----29.79- 41.9 41.2----
2024-05-21 10:42 pmSSW 12.0 15.9----29.78- 41.9 41.2----
2024-05-21 10:36 pm SW 8.9 13.0----29.78- 41.9 41.2----
2024-05-21 10:30 pmSSW 12.0 15.0----29.78- 41.9 41.2----
2024-05-21 10:24 pmSSW 11.1 15.9----29.78- 41.9 41.2----
2024-05-21 10:18 pmSSW 12.0 21.0----29.78- 41.9 41.2----
2024-05-21 10:12 pmSSW 13.0 17.1----29.78- 41.9 41.2----
2024-05-21 10:06 pmSSW 14.0 18.1----29.78- 41.9 41.2----
2024-05-21 10:00 pm SW 14.0 20.0----29.77+0.00 41.9 41.2----
2024-05-21 09:54 pm SW 12.0 17.1----29.77- 41.9 41.2----
2024-05-21 09:48 pm SW 13.0 18.1----29.77- 42.1 41.2----
2024-05-21 09:42 pmSSW 14.0 19.0----29.77- 42.1 41.2----
2024-05-21 09:36 pm SW 14.0 19.0----29.77- 42.3 41.2----
2024-05-21 09:30 pm SW 14.0 19.0----29.77- 42.3 41.2----
2024-05-21 09:24 pm SW 12.0 18.1----29.77- 42.4 41.2----
2024-05-21 09:18 pm SW 13.0 19.0----29.77- 42.6 41.2----
2024-05-21 09:12 pmSSW 12.0 18.1----29.76- 42.6 41.2----
2024-05-21 09:06 pmSSW 13.0 17.1----29.76- 43.0 41.2----
2024-05-21 09:00 pmSSW 14.0 19.0----29.76-0.01 43.0 41.2----
2024-05-21 08:54 pmSSW 11.1 15.9----29.76- 42.6 41.2----
2024-05-21 08:48 pm SW 8.9 14.0----29.76- 42.3 41.2----
2024-05-21 08:42 pm SW 9.9 13.0----29.77- 41.7 41.2----
2024-05-21 08:36 pmSSW 9.9 14.0----29.77- 41.5 41.2----
2024-05-21 08:30 pmSSW 11.1 14.0----29.77- 41.5 41.2----
2024-05-21 08:24 pm S 9.9 14.0----29.77- 41.7 41.2----
2024-05-21 08:18 pmSSW 11.1 15.0----29.77- 41.9 41.2----
2024-05-21 08:12 pmSSW 11.1 17.1----29.77- 41.9 41.2----
2024-05-21 08:06 pmSSW 9.9 15.9----29.76- 41.9 41.2----
2024-05-21 08:00 pmSSW 12.0 17.1----29.76+0.00 42.1 41.2----
2024-05-21 07:54 pm S 13.0 19.0----29.76- 42.8 41.2----
2024-05-21 07:48 pmSSW 8.9 13.0----29.76- 42.6 41.2----
2024-05-21 07:42 pmSSW 11.1 14.0----29.76- 42.8 41.2----
2024-05-21 07:36 pmSSW 12.0 15.0----29.76- 42.8 41.2----
2024-05-21 07:30 pmSSW 12.0 15.9----29.76- 43.0 41.0----
2024-05-21 07:24 pmSSW 11.1 15.0----29.77- 42.8 41.0----
2024-05-21 07:18 pmSSW 11.1 14.0----29.77- 42.8 41.0----
2024-05-21 07:12 pmSSW 11.1 15.0----29.77- 42.8 41.0----
2024-05-21 07:06 pmSSW 9.9 14.0----29.77- 42.6 41.0----
2024-05-21 07:00 pmSSW 11.1 17.1----29.77+0.00 42.4 41.0----
2024-05-21 06:54 pm SW 12.0 19.0----29.77- 42.6 41.0----
2024-05-21 06:48 pmSSW 12.0 15.0----29.77- 42.6 41.0----
2024-05-21 06:42 pmSSW 11.1 18.1----29.77- 42.8 41.0----
2024-05-21 06:36 pmSSW 13.0 18.1----29.77- 42.6 41.0----
2024-05-21 06:30 pmSSW 11.1 15.9----29.77- 42.4 41.0----
2024-05-21 06:24 pmSSW 12.0 15.0----29.77- 42.6 41.0----
2024-05-21 06:18 pmSSW 11.1 15.9----29.77- 42.6 41.0----
2024-05-21 06:12 pmSSW 12.0 15.0----29.77- 42.4 41.0----
2024-05-21 06:06 pmSSW 11.1 19.0----29.77- 42.3 41.0----
2024-05-21 06:00 pm SW 11.1 17.1----29.77+0.00 42.3 41.0----
2024-05-21 05:54 pmSSW 11.1 17.1----29.77- 42.3 41.0----
2024-05-21 05:48 pmSSW 9.9 15.9----29.77- 42.3 41.0----
2024-05-21 05:42 pmSSW 13.0 17.1----29.76- 42.1 41.0----
2024-05-21 05:36 pmSSW 11.1 15.9----29.76- 42.3 41.0----
2024-05-21 05:30 pmSSW 11.1 15.9----29.76- 42.4 41.0----
2024-05-21 05:24 pmSSW 12.0 17.1----29.77- 42.4 41.0----
2024-05-21 05:18 pmSSW 8.9 12.0----29.77- 42.4 41.0----
2024-05-21 05:12 pmSSW 8.0 14.0----29.77- 42.4 41.0----
2024-05-21 05:06 pmSSW 12.0 15.9----29.77- 42.4 41.0----
2024-05-21 05:00 pmSSW 13.0 18.1----29.77-0.01 42.6 41.0----
2024-05-21 04:54 pmSSW 12.0 15.9----29.77- 42.4 41.0----
2024-05-21 04:48 pmSSW 9.9 14.0----29.77- 42.8 41.0----
2024-05-21 04:42 pmSSW 9.9 15.0----29.77- 42.8 41.0----
2024-05-21 04:36 pmSSW 9.9 17.1----29.77- 42.8 41.0----
2024-05-21 04:30 pmSSW 12.0 18.1----29.77- 42.8 41.0----
2024-05-21 04:24 pmSSW 13.0 17.1----29.77- 42.8 41.0----
2024-05-21 04:18 pmSSW 12.0 17.1----29.77- 42.6 41.0----
2024-05-21 04:12 pmSSW 9.9 17.1----29.77- 42.6 41.0----
2024-05-21 04:06 pmSSW 13.0 19.0----29.77- 42.8 41.0----
2024-05-21 04:00 pmSSW 12.0 17.1----29.77-0.01 42.8 41.0----
2024-05-21 03:54 pmSSW 12.0 17.1----29.77- 42.8 41.0----
2024-05-21 03:48 pmSSW 8.9 15.9----29.77- 42.8 41.0----
2024-05-21 03:42 pmSSW 12.0 17.1----29.77- 42.6 41.0----
2024-05-21 03:36 pmSSW 12.0 15.9----29.77- 42.8 41.0----
2024-05-21 03:30 pmSSW 12.0 15.9----29.77- 42.8 41.0----
2024-05-21 03:24 pm SW 11.1 17.1----29.77- 42.8 41.0----
2024-05-21 03:18 pmSSW 14.0 19.0----29.77- 42.8 41.0----
2024-05-21 03:12 pmSSW 12.0 18.1----29.77- 42.6 41.0----
2024-05-21 03:06 pm S 8.9 15.0----29.77- 42.4 41.0----
2024-05-21 03:00 pmSSW 14.0 19.0----29.77-0.01 42.1 40.8----
2024-05-21 02:54 pmSSW 9.9 15.0----29.77- 42.1 40.8----
2024-05-21 02:48 pmSSW 9.9 14.0----29.77- 42.3 40.8----
2024-05-21 02:42 pm S 7.0 14.0----29.77- 42.4 40.8----
2024-05-21 02:36 pmSSW 8.0 12.0----29.78- 42.3 40.8----
2024-05-21 02:30 pm S 8.0 14.0----29.78- 42.3 40.8----
2024-05-21 02:24 pm S 8.0 15.0----29.78- 42.6 40.8----
2024-05-21 02:18 pm S 9.9 14.0----29.78- 42.3 40.8----
2024-05-21 02:12 pmSSW 8.9 14.0----29.78- 42.3 40.8----
2024-05-21 02:06 pm S 8.0 13.0----29.78- 42.4 40.8----
2024-05-21 02:00 pmSSW 8.0 12.0----29.78+0.00 42.4 40.8----
2024-05-21 01:54 pm S 8.0 13.0----29.78- 42.4 40.8----
2024-05-21 01:48 pm S 7.0 14.0----29.78- 42.4 40.8----
2024-05-21 01:42 pm S 11.1 15.0----29.78- 41.9 40.8----
2024-05-21 01:36 pm S 8.0 11.1----29.78- 41.5 40.8----
2024-05-21 01:30 pm S 8.0 12.0----29.78-- 40.8----
2024-05-21 01:24 pmSSW 8.9 12.0----29.79-- 40.8----
2024-05-21 01:18 pmSSW 8.0 14.0----29.79-- 40.8----
2024-05-21 01:12 pmSSW 9.9 15.0----29.79-- 40.8----
2024-05-21 01:06 pmSSW 8.9 14.0----29.79-- 40.8----
2024-05-21 01:00 pmSSW 11.1 15.0----29.78+0.01 41.9 40.8----
2024-05-21 12:54 pmSSW 9.9 17.1----29.79- 41.9 40.8----
2024-05-21 12:48 pmSSW 12.0 20.0----29.78-- 40.8----
2024-05-21 12:42 pmSSW 12.0 15.9----29.79-- 40.8----
2024-05-21 12:36 pmSSW 8.0 14.0----29.79-- 40.8----
2024-05-21 12:30 pm S 9.9 13.0----29.79-------
2024-05-21 12:24 pmSSW 8.0 13.0----29.78-------
2024-05-21 12:18 pmSSW 9.9 14.0----29.78-- 40.8----
2024-05-21 12:12 pmSSW 8.0 12.0----29.78-- 40.8----
2024-05-21 12:06 pm S 7.0 12.0----29.78-- 40.8----
2024-05-21 12:00 pmSSW 9.9 14.0----29.79+0.01 41.4 40.8----
2024-05-21 11:54 amSSW 8.0 14.0----29.79- 41.4 40.6----
2024-05-21 11:48 amSSW 9.9 15.0----29.79-- 40.6----
2024-05-21 11:42 amSSW 11.1 14.0----29.79-- 40.6----
2024-05-21 11:36 amSSW 9.9 14.0----29.78-- 40.6----
2024-05-21 11:30 amSSW 8.9 14.0------- 40.8----
2024-05-21 11:24 amSSW 7.0 9.9------- 40.8----
2024-05-21 11:18 amSSW 8.9 12.0----29.79- 41.7 40.8----
2024-05-21 11:12 amSSW 9.9 14.0----29.79- 41.9 40.8----
2024-05-21 11:06 amSSW 9.9 15.0----29.79- 41.7 40.8----
2024-05-21 11:00 amSSW 11.1 17.1----29.78+0.02 41.9 40.8----
2024-05-21 10:54 amSSW 13.0 17.1----29.78- 41.9 40.8----